Helicity
58 47 49 51 48 49 54 55 58 48 61 72 86 75 60 56 49 48 37 38 31 31 40 51 50 43 21 -14 -0 11 54 50 9 4 -23 -8 10 32 44 53 65 70 64 72 72 79 81
63 64 58 50 59 65 49 62 58 58 50 64 71 76 72 58 56 48 44 38 38 37 44 50 54 33 9 -6 24 40 52 32 45 -7 2 18 17 26 66 64 59 65 85 87 63 65 67
41 51 62 59 53 58 73 58 65 58 66 68 77 71 73 65 60 51 47 41 36 45 39 42 53 37 8 -12 28 62 62 40 42 12 28 40 44 55 67 85 77 89 103 83 61 50 62
28 34 42 53 59 55 55 66 65 73 69 76 88 90 76 72 63 55 48 47 50 37 35 30 29 28 27 32 30 54 68 42 57 43 54 59 64 84 94 95 125 91 98 65 60 75 61
18 22 27 34 50 57 58 55 62 71 81 82 81 104 101 78 65 53 46 45 47 38 31 40 42 44 35 40 53 50 54 57 60 62 69 68 81 98 125 121 106 87 47 53 54 68 86
17 24 23 23 22 40 56 57 59 61 70 80 93 88 116 102 76 59 57 24 42 59 69 51 60 70 61 46 49 59 52 64 81 78 89 95 97 101 120 107 57 56 77 68 78 62 81
39 27 20 20 25 20 28 49 58 59 59 61 77 104 103 118 91 59 53 59 68 61 94 62 62 64 72 52 54 74 77 77 85 115 81 100 95 68 75 85 67 73 94 91 81 90 87
105 71 51 36 25 17 27 27 39 54 58 63 66 77 113 123 99 44 33 54 59 52 57 63 79 85 76 83 90 76 93 82 91 88 106 114 72 96 113 99 94 101 118 91 71 96 89
121 151 84 73 61 45 16 16 25 31 43 57 61 75 92 149 75 39 44 50 55 52 58 57 91 92 89 93 84 78 94 100 98 102 99 104 98 121 106 104 107 107 109 98 90 83 81
87 92 119 122 77 89 71 43 6 11 22 31 47 55 87 163 59 41 47 48 61 62 97 65 99 118 132 122 115 103 118 113 136 99 109 100 124 125 123 103 114 106 118 122 104 107 85
108 106 93 80 115 83 115 91 69 19 4 19 41 39 50 23 50 66 42 46 59 75 119 67 110 106 128 167 128 142 130 137 116 125 128 87 98 131 136 117 119 108 124 112 112 110 102
158 138 110 107 98 85 115 134 125 107 40 19 35 53 34 19 47 47 43 71 96 174 122 78 82 74 120 130 124 130 129 151 139 166 173 141 132 125 131 162 158 140 148 141 127 122 123
183 173 162 145 119 108 84 87 150 145 176 71 41 53 44 7 42 33 73 126 209 200 116 85 104 124 112 129 132 134 140 161 160 193 150 172 151 150 163 201 183 188 188 143 126 150 127
301 274 235 167 184 158 123 94 123 101 140 176 120 77 6 34 48 66 116 217 243 150 144 139 116 144 98 105 113 144 158 143 136 188 163 155 142 167 179 198 171 177 170 170 158 155 135
218 261 329 292 208 190 198 150 128 118 81 109 195 115 42 70 94 129 178 289 252 130 123 137 207 161 129 130 141 153 144 137 120 194 160 165 159 197 205 198 200 172 174 175 246 187 187
151 245 242 270 267 208 177 215 166 133 137 46 46 130 115 83 125 211 226 253 207 147 159 146 113 132 117 147 179 160 136 109 169 180 228 164 203 182 205 208 216 191 162 239 245 188 177
166 199 201 179 200 182 181 162 202 153 116 97 36 91 145 128 156 278 269 247 175 99 127 112 118 172 163 135 143 164 138 131 150 188 228 222 218 169 210 185 196 247 238 250 236 248 222
87 169 154 168 158 152 149 119 145 160 86 56 132 158 150 184 286 237 254 247 187 128 164 166 154 132 159 136 136 165 136 153 132 191 187 184 211 173 159 168 172 215 205 264 278 217 291
51 130 135 114 142 128 106 117 98 123 99 20 174 206 203 255 227 230 241 231 231 202 180 131 157 154 174 146 180 151 173 210 191 190 156 194 223 245 215 211 223 237 247 268 326 299 302
29 61 99 101 103 117 102 102 119 102 19 3 85 232 299 346 389 202 188 256 281 230 233 220 187 227 250 212 224 159 187 205 230 246 268 257 244 230 191 201 171 158 184 255 313 336 376
16 22 59 72 83 99 93 80 96 105 63 -74 42 141 277 236 363 286 302 241 187 277 257 173 236 262 271 262 254 197 276 286 289 237 304 278 221 209 172 161 172 168 168 202 268 302 391
2 -2 19 53 72 63 77 70 82 91 58 -21 19 62 196 255 269 217 223 220 235 246 256 318 369 208 256 280 227 183 315 264 253 242 281 297 259 203 174 189 184 174 141 181 214 274 313
7 5 -7 4 30 68 54 79 66 79 23 -66 -32 60 155 178 203 300 309 178 144 258 187 205 126 269 207 93 187 185 172 178 156 239 330 320 306 256 195 188 209 187 150 228 261 359 302
20 6 -0 -12 -4 23 45 45 88 89 42 -29 -24 31 24 70 210 203 180 181 146 158 113 171 197 179 122 235 269 328 336 330 324 329 282 311 343 291 273 206 219 167 155 138 97 124 194
18 15 11 3 -15 6 6 64 58 71 74 -60 -19 104 44 51 146 268 165 175 160 139 135 154 183 145 138 254 302 284 327 305 299 349 334 337 377 338 338 298 248 164 173 207 230 138 160
8 5 -3 6 3 2 3 30 83 63 56 -61 -1 97 85 -40 28 96 214 103 193 197 190 231 255 230 292 258 326 302 324 368 310 373 412 391 385 343 350 310 261 186 169 155 156 199 183
16 8 6 -2 -5 -2 -2 -9 69 61 44 -37 19 -3 20 -31 -58 25 123 134 141 212 167 196 264 313 330 307 302 325 344 326 341 327 404 506 448 351 324 285 306 225 235 246 248 132 180
26 34 27 14 1 -5 -11 -4 47 58 55 18 -56 18 53 11 -80 64 16 155 141 160 208 225 332 341 385 371 299 261 281 291 336 332 355 366 345 358 353 357 293 324 396 210 163 241 245
39 26 40 38 22 22 27 16 30 33 39 23 -5 20 69 28 -73 23 62 83 169 172 167 263 286 255 298 323 341 308 332 353 425 375 394 354 363 279 264 185 190 101 169 202 246 302 310
Wind_Speed
46 46 48 49 49 49 49 49 49 50 49 48 45 42 40 38 38 39 38 38 37 35 33 35 35 34 23 35 35 32 31 32 30 28 32 28 22 22 21 22 24 23 19 22 21 21 22
49 49 49 49 50 51 50 51 51 51 51 50 49 45 44 42 41 41 41 40 39 37 38 37 35 32 23 37 29 35 33 32 29 25 22 21 21 21 23 24 24 22 20 21 22 23 24
52 52 52 52 52 52 53 52 53 52 52 52 52 49 46 43 43 42 42 41 38 40 39 37 35 33 22 15 27 35 34 28 30 24 21 22 21 24 22 24 22 21 22 23 21 21 24
55 55 55 55 55 55 54 54 55 55 55 54 54 53 49 45 44 43 43 42 42 41 42 39 34 29 36 28 28 32 33 26 29 26 23 23 21 24 27 21 25 22 22 17 17 20 23
58 58 58 58 58 58 57 57 57 57 57 57 56 55 53 48 46 44 43 44 45 42 40 42 33 30 31 29 30 31 29 25 28 25 24 23 24 25 23 18 22 23 16 11 21 17 23
62 62 62 61 60 60 60 60 60 59 59 60 60 59 56 53 49 46 46 42 36 42 31 31 35 35 30 26 29 32 27 25 24 23 22 25 27 23 22 14 14 16 17 21 21 19 19
65 65 65 65 64 63 62 62 62 62 62 62 62 62 61 59 53 48 40 31 38 36 33 27 31 33 31 32 29 31 30 25 24 24 16 27 21 13 13 18 25 24 24 26 27 26 29
70 69 68 69 68 66 66 65 65 65 64 64 64 64 64 63 57 47 36 35 35 36 42 32 33 34 34 28 24 28 28 17 17 17 20 25 18 22 22 25 24 27 29 30 35 35 38
74 74 74 73 73 72 70 68 68 67 66 66 66 66 66 67 54 39 40 38 36 36 45 39 31 29 27 25 23 21 25 19 19 17 17 21 26 19 21 26 24 30 31 34 39 48 44
75 75 77 77 78 77 76 73 70 69 68 68 67 66 66 68 41 46 44 37 37 37 48 42 30 29 25 24 29 27 26 22 24 19 20 27 23 19 21 25 27 31 30 35 43 50 47
78 78 79 78 79 76 78 79 76 72 70 69 68 66 64 53 53 48 43 36 35 34 56 31 28 26 23 23 23 26 25 24 20 20 24 30 21 21 24 27 25 35 31 39 41 46 52
83 81 80 80 81 81 81 80 82 79 74 71 69 68 64 52 52 45 40 35 32 43 57 31 27 27 27 27 26 23 23 26 23 26 32 28 31 29 30 29 29 26 35 40 43 44 47
86 87 84 83 83 83 82 84 84 85 81 75 71 70 65 46 49 39 37 36 48 54 38 39 35 30 33 33 32 28 28 27 26 30 25 31 33 31 29 30 32 31 36 48 49 44 43
90 88 87 86 85 83 84 83 83 84 82 80 77 73 53 51 39 36 37 48 64 51 46 38 34 30 33 30 37 34 35 33 34 32 35 25 42 27 28 33 32 26 30 39 53 50 49
91 92 91 89 87 86 85 84 83 84 84 80 81 66 60 49 37 35 44 68 61 56 46 38 39 44 44 41 40 38 37 37 32 24 33 29 36 31 33 31 29 32 33 34 43 49 56
96 95 92 93 91 88 87 86 84 84 84 75 75 76 64 43 32 41 60 76 64 55 45 42 53 41 47 43 41 37 39 34 36 28 34 33 39 34 34 32 35 36 25 41 42 57 62
94 96 96 94 92 90 89 86 85 83 81 78 73 77 56 36 40 55 81 73 72 64 50 50 60 58 52 47 43 44 46 39 31 26 30 31 34 38 35 35 33 33 36 39 41 43 60
93 93 92 94 92 91 90 89 86 82 80 71 69 86 55 48 68 74 90 73 65 64 57 63 63 61 56 51 52 52 49 43 24 20 30 29 35 41 44 40 37 38 38 34 48 53 49
86 88 89 89 90 89 89 88 86 84 73 69 80 78 57 66 91 98 88 84 79 73 66 61 66 61 56 56 58 52 51 45 26 27 28 25 38 46 52 49 44 44 41 40 42 46 52
87 87 88 89 89 89 87 86 86 84 75 67 74 87 74 77 80 87 95 99 92 73 76 66 67 60 59 61 58 56 50 43 36 37 36 29 40 44 53 49 39 46 42 38 39 54 58
76 83 90 88 87 91 88 85 84 81 77 65 68 87 78 90 101 96 85 87 99 90 74 64 72 74 68 69 65 66 54 46 43 37 37 37 51 51 58 56 55 55 53 43 43 47 56
86 85 81 87 89 88 88 86 84 82 79 72 79 79 79 97 85 85 98 108 99 88 79 86 86 75 70 75 68 66 54 50 48 39 39 41 52 51 62 58 59 67 58 54 53 54 60
90 88 85 84 88 89 87 87 86 83 76 78 66 70 74 91 103 94 101 100 104 84 82 77 74 74 74 71 57 56 47 45 43 41 41 42 46 53 71 59 66 77 61 56 59 57 53
86 90 89 87 86 88 87 87 86 85 81 83 78 69 79 101 97 107 105 97 96 85 91 82 72 72 65 36 34 39 41 41 40 41 38 42 42 47 64 60 82 63 50 49 53 50 40
84 87 89 89 87 88 87 89 89 86 85 88 86 72 76 102 92 100 111 99 89 89 89 82 67 61 35 40 56 58 57 55 53 47 42 41 42 53 63 66 77 81 61 52 54 60 35
75 85 90 91 89 89 89 90 91 89 85 84 92 76 71 86 100 92 101 107 101 88 76 75 62 53 46 53 58 72 72 62 58 54 47 46 49 53 57 69 77 54 44 40 43 71 48
54 66 84 92 93 92 90 91 93 91 89 84 90 80 75 87 94 92 97 99 92 89 83 69 61 61 55 64 70 71 71 53 59 58 52 51 56 59 62 68 71 51 39 36 60 65 38
52 48 66 84 93 95 95 93 92 89 87 85 87 75 83 81 95 94 96 100 83 86 97 71 61 64 64 72 71 65 69 63 63 53 51 49 50 56 57 65 82 40 33 46 50 42 33
49 42 49 57 79 82 79 83 87 86 86 85 89 82 83 94 98 82 93 98 104 97 81 73 81 67 63 66 69 63 69 60 64 76 52 60 52 56 48 54 47 21 44 37 38 37 36
Wind_Direction
336 337 339 339 339 339 339 339 338 340 338 335 328 316 307 293 278 269 264 257 240 218 229 254 251 263 3 199 186 217 244 244 226 94 132 110 71 26 20 10 360 6 41 12 16 21 24
333 332 333 333 333 334 336 335 335 335 337 335 332 322 311 299 290 277 266 263 264 271 265 270 271 294 10 197 321 257 250 246 302 84 77 63 61 46 18 6 2 8 20 16 356 5 6
332 331 329 329 330 330 330 331 331 332 332 332 331 326 315 304 294 286 279 276 275 277 280 288 296 305 25 115 340 299 295 338 349 38 31 15 30 356 6 2 23 33 13 1 5 16 14
326 329 327 326 326 327 328 325 327 328 329 327 328 327 320 309 300 288 280 276 279 287 281 287 311 330 300 335 331 322 318 345 344 4 14 5 23 2 338 13 344 15 6 30 11 13 14
318 321 323 323 324 325 326 325 324 324 324 325 324 323 322 312 304 298 289 282 286 295 298 291 312 323 319 330 323 327 335 340 336 348 356 359 354 351 349 21 3 354 28 41 7 1 0
319 317 316 317 318 320 321 323 322 322 321 321 322 322 319 314 305 300 294 299 306 300 315 317 308 310 316 327 326 320 335 338 336 342 349 340 340 349 349 12 12 7 355 352 352 4 354
320 318 315 315 314 313 316 317 318 319 319 319 319 318 318 315 306 303 314 326 306 307 306 313 314 308 316 316 324 320 320 324 327 327 347 328 342 356 358 345 337 345 344 341 341 347 342
314 314 315 312 311 314 312 313 313 315 316 317 317 317 315 313 306 310 319 314 312 312 306 310 307 304 308 316 324 318 321 339 334 331 336 330 335 340 344 339 339 337 336 332 331 334 332
318 316 310 308 308 307 308 309 309 310 312 313 314 315 314 311 309 320 314 311 317 319 304 304 305 307 308 315 320 322 314 329 330 329 328 325 335 343 340 334 335 331 329 328 326 325 329
321 319 315 310 304 306 304 305 306 307 308 310 311 313 313 311 315 312 309 316 313 317 301 300 303 305 307 313 310 315 311 319 322 319 327 324 327 330 330 328 332 329 333 330 326 326 327
319 318 314 313 313 309 302 298 302 304 305 306 307 309 312 316 304 305 310 316 315 313 294 309 305 315 312 302 321 314 315 313 312 316 318 319 324 320 318 324 332 327 335 330 330 326 325
317 315 313 312 308 307 304 299 295 299 302 303 304 304 308 309 304 305 309 310 308 294 287 304 308 306 300 299 306 316 315 317 321 314 313 317 319 318 317 326 329 339 332 333 329 327 322
316 312 311 311 307 306 304 300 297 292 296 300 301 300 300 305 297 307 304 296 283 278 301 296 298 298 292 293 293 297 299 295 299 304 302 313 308 314 316 318 322 324 327 323 322 324 323
316 312 311 307 307 307 304 300 297 295 294 294 294 297 299 296 298 299 292 276 270 283 282 298 300 300 293 292 293 291 294 290 289 299 306 304 306 298 309 309 316 316 321 318 316 318 322
314 309 307 307 305 303 303 302 299 295 292 294 292 290 289 293 287 286 275 264 271 277 285 283 292 289 287 289 292 289 287 292 291 273 292 306 307 312 312 314 316 318 314 323 318 321 318
310 307 305 302 301 301 300 300 299 296 295 293 290 282 279 284 279 273 266 263 270 275 283 282 277 283 287 285 282 285 287 303 291 284 292 302 306 309 306 312 312 311 324 316 319 315 314
311 309 303 299 297 297 297 297 298 297 297 294 285 280 276 268 273 266 260 264 268 270 275 277 277 280 283 283 279 284 292 301 294 292 290 296 300 309 306 298 296 304 306 312 317 315 314
314 309 305 300 296 294 293 293 293 296 297 294 277 270 274 262 263 266 260 263 269 270 271 272 278 277 277 279 281 279 284 291 292 287 290 290 304 299 299 306 306 301 302 300 304 310 311
320 311 305 301 298 295 291 290 290 289 296 297 273 268 272 267 257 258 264 264 265 264 267 270 271 273 276 275 278 276 282 292 280 278 288 282 295 300 302 301 300 297 295 298 305 311 304
319 315 309 303 298 294 292 290 288 286 289 293 279 264 263 260 265 256 258 260 261 264 265 265 270 271 272 272 273 280 280 290 283 281 287 284 290 292 293 304 310 302 297 290 291 301 304
325 319 307 303 300 292 290 289 287 285 286 290 278 267 264 260 256 255 259 261 258 258 261 261 266 263 266 270 269 271 277 281 283 279 281 282 287 290 290 296 299 299 300 293 281 284 296
320 318 317 309 300 296 291 286 285 285 282 278 271 272 272 264 260 256 253 255 257 259 258 260 261 265 264 265 267 270 266 270 275 272 273 281 288 292 293 297 296 294 295 292 287 286 286
313 315 314 312 303 296 293 289 284 281 279 273 275 278 280 265 258 254 253 255 256 259 263 262 261 264 262 262 269 276 273 275 276 270 264 273 280 288 289 296 298 296 296 290 294 292 286
313 308 310 309 306 300 295 291 286 282 278 272 274 276 273 265 262 255 256 255 257 258 261 264 263 258 265 266 270 279 278 277 274 277 276 273 276 286 291 296 290 302 311 311 307 303 291
312 309 304 305 305 301 297 290 285 281 281 272 271 270 269 264 265 262 256 255 256 258 258 259 260 264 251 255 261 265 269 273 273 278 273 276 275 286 287 288 296 297 304 307 304 306 296
313 307 303 299 301 300 297 290 284 281 281 279 266 266 267 268 260 265 261 254 252 254 258 257 261 257 252 260 257 258 262 266 270 274 276 276 278 276 286 290 293 305 318 322 320 306 312
308 311 303 298 294 295 295 292 285 282 277 279 268 265 266 266 264 265 261 257 254 251 254 257 254 249 252 252 256 259 262 267 265 266 272 270 273 268 277 285 294 300 311 321 307 313 325
304 303 308 300 294 289 290 294 287 284 277 276 268 268 262 264 261 265 267 260 260 247 247 251 252 253 250 252 254 261 264 261 268 270 270 265 269 276 280 285 291 301 306 300 313 322 323
296 287 303 306 301 302 306 303 288 282 272 276 266 269 270 261 258 266 268 266 259 258 251 246 252 251 250 251 257 262 264 267 265 267 270 270 272 279 273 287 305 283 305 308 316 315 317